GLOBALSTAR M004 [-]

Last updated on Fri Dec 29 2023 00:02:56 GMT+0000 (Coordinated Universal Time)

1 25163U 98008B 23361.88957307 -.00000007 00000+0 53168-3 0 9997 2 25163 51.9983 253.2595 0002851 158.9382 281.5167 12.63346611193777
UTC large
Height (km)
Speed (km/s)
/
Latitude / Longitude
Inclination (degrees)
Orbital Period (minutes)
Azimuth
Elevation
Range (km)
Doppler Factor

Next 0 passes for location: London (51.5072 / 0.1276)

Sorry there are no passes over London.